Wetterdaten: Donnerstag, 25.09.2014
Datum Zeit Temperatur Luftfeuchte Luftdruck Regen Wind Richtung Richtung Taupunkt Windchill Windben
25.09.2014 00:00 9,5 C 92 % 1017,4 hPa 0,0 l/m 0,0 km/h (0 Bft) S-SO 157 8,3 C 22,8 C 0,0 km/h (0 Bft)
25.09.2014 00:08 9,5 C 93 % 1017,2 hPa 0,0 l/m 0,0 km/h (0 Bft) S-SO 157 8,4 C 22,8 C 0,0 km/h (0 Bft)
25.09.2014 00:20 9,5 C 93 % 1017,2 hPa 0,0 l/m 0,0 km/h (0 Bft) S-SO 157 8,4 C 22,8 C 0,0 km/h (0 Bft)
25.09.2014 00:30 9,5 C 93 % 1017,1 hPa 0,0 l/m 0,0 km/h (0 Bft) S-SO 157 8,4 C 22,8 C 0,0 km/h (0 Bft)
25.09.2014 00:40 9,5 C 94 % 1017,1 hPa 0,0 l/m 0,0 km/h (0 Bft) S-SO 157 8,6 C 22,8 C 0,0 km/h (0 Bft)
25.09.2014 00:50 9,4 C 94 % 1017,2 hPa 0,0 l/m 0,0 km/h (0 Bft) S-SO 157 8,5 C 22,8 C 0,0 km/h (0 Bft)
25.09.2014 01:00 9,5 C 94 % 1017,2 hPa 0,0 l/m 0,0 km/h (0 Bft) S-SO 157 8,6 C 22,8 C 0,0 km/h (0 Bft)
25.09.2014 01:10 9,4 C 94 % 1017,0 hPa 0,0 l/m 0,0 km/h (0 Bft) S-SO 157 8,5 C 22,8 C 0,0 km/h (0 Bft)
25.09.2014 01:20 9,4 C 94 % 1017,0 hPa 0,0 l/m 0,0 km/h (0 Bft) S-SO 157 8,5 C 22,8 C 0,0 km/h (0 Bft)
25.09.2014 01:30 9,4 C 94 % 1017,1 hPa 0,0 l/m 0,0 km/h (0 Bft) S-SO 157 8,5 C 22,8 C 0,0 km/h (0 Bft)
25.09.2014 01:40 9,4 C 94 % 1017,1 hPa 0,0 l/m 0,0 km/h (0 Bft) S-SO 157 8,5 C 22,8 C 0,0 km/h (0 Bft)
25.09.2014 01:50 9,4 C 94 % 1017,2 hPa 0,0 l/m 0,0 km/h (0 Bft) S-SO 157 8,5 C 22,8 C 0,0 km/h (0 Bft)
25.09.2014 02:00 9,4 C 94 % 1017,2 hPa 0,0 l/m 0,0 km/h (0 Bft) S-SO 157 8,5 C 22,8 C 0,0 km/h (0 Bft)
25.09.2014 02:10 9,4 C 95 % 1017,2 hPa 0,0 l/m 0,0 km/h (0 Bft) S-SO 157 8,6 C 22,8 C 0,0 km/h (0 Bft)
25.09.2014 02:20 9,4 C 95 % 1017,2 hPa 0,0 l/m 0,0 km/h (0 Bft) S-SO 157 8,6 C 22,8 C 0,0 km/h (0 Bft)
25.09.2014 02:30 9,4 C 95 % 1017,4 hPa 0,0 l/m 0,0 km/h (0 Bft) S-SO 157 8,6 C 22,8 C 0,0 km/h (0 Bft)
25.09.2014 02:40 9,5 C 95 % 1017,4 hPa 0,0 l/m 0,0 km/h (0 Bft) S-SO 157 8,7 C 22,8 C 0,0 km/h (0 Bft)
25.09.2014 02:50 9,0 C 95 % 1017,7 hPa 0,0 l/m 0,0 km/h (0 Bft) S-SO 157 8,2 C 22,8 C 0,0 km/h (0 Bft)
25.09.2014 03:00 8,1 C 95 % 1017,7 hPa 0,0 l/m 0,0 km/h (0 Bft) S-SO 157 7,3 C 22,8 C 0,0 km/h (0 Bft)
25.09.2014 03:08 8,1 C 95 % 1018,5 hPa 0,0 l/m 0,0 km/h (0 Bft) S-SO 157 7,3 C 22,8 C 0,0 km/h (0 Bft)
25.09.2014 03:10 8,1 C 95 % 1018,5 hPa 0,0 l/m 0,0 km/h (0 Bft) S-SO 157 7,3 C 22,8 C 0,0 km/h (0 Bft)
25.09.2014 03:20 7,9 C 95 % 1018,5 hPa 0,0 l/m 0,0 km/h (0 Bft) S-SO 157 7,1 C 22,8 C 0,0 km/h (0 Bft)
25.09.2014 03:30 7,8 C 95 % 1018,7 hPa 0,0 l/m 0,0 km/h (0 Bft) S-SO 157 7,0 C 22,8 C 0,0 km/h (0 Bft)
25.09.2014 03:40 7,8 C 95 % 1018,7 hPa 0,0 l/m 0,0 km/h (0 Bft) S-SO 157 7,0 C 22,8 C 0,0 km/h (0 Bft)
25.09.2014 03:50 7,8 C 95 % 1018,9 hPa 0,0 l/m 0,0 km/h (0 Bft) S-SO 157 7,0 C 22,8 C 0,0 km/h (0 Bft)
25.09.2014 04:00 7,6 C 95 % 1018,9 hPa 0,0 l/m 0,0 km/h (0 Bft) S-SO 157 6,9 C 22,8 C 0,0 km/h (0 Bft)
25.09.2014 04:10 7,2 C 95 % 1018,9 hPa 0,0 l/m 0,0 km/h (0 Bft) S-SO 157 6,5 C 22,8 C 0,0 km/h (0 Bft)
25.09.2014 04:20 6,9 C 95 % 1018,9 hPa 0,0 l/m 0,0 km/h (0 Bft) S-SO 157 6,2 C 22,8 C 0,0 km/h (0 Bft)
25.09.2014 04:30 6,8 C 95 % 1018,9 hPa 0,0 l/m 0,0 km/h (0 Bft) S-SO 157 6,1 C 22,8 C 0,0 km/h (0 Bft)
25.09.2014 04:40 6,7 C 95 % 1018,9 hPa 0,0 l/m 0,0 km/h (0 Bft) S-SO 157 6,0 C 22,8 C 0,0 km/h (0 Bft)
25.09.2014 04:50 6,8 C 95 % 1019,1 hPa 0,0 l/m 0,0 km/h (0 Bft) S-SO 157 6,1 C 22,8 C 0,0 km/h (0 Bft)
25.09.2014 05:00 6,9 C 95 % 1019,1 hPa 0,0 l/m 0,0 km/h (0 Bft) S-SO 157 6,2 C 22,8 C 0,0 km/h (0 Bft)
25.09.2014 05:10 7,1 C 95 % 1019,2 hPa 0,0 l/m 0,0 km/h (0 Bft) S-SO 157 6,4 C 22,8 C 0,0 km/h (0 Bft)
25.09.2014 05:20 7,2 C 95 % 1019,2 hPa 0,0 l/m 0,0 km/h (0 Bft) S-SO 157 6,5 C 22,8 C 0,0 km/h (0 Bft)
25.09.2014 05:30 7,2 C 95 % 1019,2 hPa 0,0 l/m 0,0 km/h (0 Bft) S-SO 157 6,5 C 22,8 C 0,0 km/h (0 Bft)
25.09.2014 05:40 7,3 C 95 % 1019,2 hPa 0,0 l/m 0,0 km/h (0 Bft) S-SO 157 6,6 C 22,8 C 0,0 km/h (0 Bft)
25.09.2014 05:50 7,3 C 95 % 1019,6 hPa 0,0 l/m 0,0 km/h (0 Bft) S-SO 157 6,6 C 22,8 C 0,0 km/h (0 Bft)
25.09.2014 06:00 7,3 C 95 % 1019,6 hPa 0,0 l/m 0,0 km/h (0 Bft) S-SO 157 6,6 C 22,8 C 0,0 km/h (0 Bft)
25.09.2014 06:10 7,2 C 95 % 1019,5 hPa 0,0 l/m 0,0 km/h (0 Bft) S-SO 157 6,5 C 22,8 C 0,0 km/h (0 Bft)
25.09.2014 06:20 7,2 C 95 % 1019,5 hPa 0,0 l/m 0,0 km/h (0 Bft) S-SO 157 6,5 C 22,8 C 0,0 km/h (0 Bft)
25.09.2014 06:30 7,2 C 95 % 1019,5 hPa 0,0 l/m 0,0 km/h (0 Bft) S-SO 157 6,5 C 22,8 C 0,0 km/h (0 Bft)
25.09.2014 06:40 7,1 C 95 % 1019,5 hPa 0,0 l/m 0,0 km/h (0 Bft) S-SO 157 6,4 C 22,8 C 0,0 km/h (0 Bft)
25.09.2014 06:50 7,0 C 95 % 1019,4 hPa 0,0 l/m 0,0 km/h (0 Bft) S-SO 157 6,3 C 22,8 C 0,0 km/h (0 Bft)
25.09.2014 07:00 7,1 C 95 % 1019,4 hPa 0,0 l/m 0,0 km/h (0 Bft) S-SO 157 6,4 C 22,8 C 0,0 km/h (0 Bft)
25.09.2014 07:10 6,9 C 96 % 1019,5 hPa 0,0 l/m 0,0 km/h (0 Bft) S-SO 157 6,3 C 22,8 C 0,0 km/h (0 Bft)
25.09.2014 07:20 7,0 C 95 % 1019,5 hPa 0,0 l/m 0,0 km/h (0 Bft) S-SO 157 6,3 C 22,8 C 0,0 km/h (0 Bft)
25.09.2014 07:30 7,1 C 95 % 1019,8 hPa 0,0 l/m 0,0 km/h (0 Bft) S-SO 157 6,4 C 22,8 C 0,0 km/h (0 Bft)
25.09.2014 07:40 7,2 C 95 % 1019,8 hPa 0,0 l/m 0,0 km/h (0 Bft) S-SO 157 6,5 C 22,8 C 0,0 km/h (0 Bft)
25.09.2014 07:50 7,4 C 95 % 1020,1 hPa 0,0 l/m 0,0 km/h (0 Bft) S-SO 157 6,7 C 22,8 C 0,0 km/h (0 Bft)
25.09.2014 08:00 7,4 C 95 % 1020,1 hPa 0,0 l/m 0,0 km/h (0 Bft) S-SO 157 6,7 C 22,8 C 0,0 km/h (0 Bft)
25.09.2014 08:10 7,4 C 95 % 1020,2 hPa 0,0 l/m 0,0 km/h (0 Bft) S-SO 157 6,7 C 22,8 C 0,0 km/h (0 Bft)
25.09.2014 08:20 7,5 C 96 % 1020,2 hPa 0,0 l/m 0,0 km/h (0 Bft) S-SO 157 6,9 C 22,8 C 0,0 km/h (0 Bft)
25.09.2014 08:30 7,7 C 96 % 1020,3 hPa 0,0 l/m 0,0 km/h (0 Bft) S-SO 157 7,1 C 22,8 C 0,0 km/h (0 Bft)
25.09.2014 08:40 8,6 C 95 % 1020,3 hPa 0,0 l/m 0,0 km/h (0 Bft) S-SO 157 7,8 C 22,8 C 0,0 km/h (0 Bft)
25.09.2014 08:50 8,8 C 95 % 1020,6 hPa 0,0 l/m 0,0 km/h (0 Bft) S-SO 157 8,0 C 22,8 C 0,0 km/h (0 Bft)
25.09.2014 08:58 8,4 C 95 % 1020,6 hPa 0,0 l/m 0,0 km/h (0 Bft) S-SO 157 7,6 C 22,8 C 0,0 km/h (0 Bft)
25.09.2014 09:00 8,4 C 95 % 1020,6 hPa 0,0 l/m 0,0 km/h (0 Bft) S-SO 157 7,6 C 22,8 C 0,0 km/h (0 Bft)
25.09.2014 09:10 8,4 C 95 % 1020,8 hPa 0,0 l/m 0,0 km/h (0 Bft) S-SO 157 7,6 C 22,8 C 0,0 km/h (0 Bft)
25.09.2014 09:20 8,5 C 95 % 1020,8 hPa 0,0 l/m 0,0 km/h (0 Bft) S-SO 157 7,7 C 22,8 C 0,0 km/h (0 Bft)
25.09.2014 09:30 8,6 C 95 % 1020,8 hPa 0,0 l/m 0,0 km/h (0 Bft) S-SO 157 7,8 C 22,8 C 0,0 km/h (0 Bft)
25.09.2014 09:40 9,2 C 95 % 1020,8 hPa 0,0 l/m 0,0 km/h (0 Bft) S-SO 157 8,4 C 22,8 C 0,0 km/h (0 Bft)
25.09.2014 09:50 9,3 C 95 % 1020,8 hPa 0,0 l/m 0,0 km/h (0 Bft) S-SO 157 8,5 C 22,8 C 0,0 km/h (0 Bft)
25.09.2014 10:00 9,7 C 94 % 1020,8 hPa 0,0 l/m 0,0 km/h (0 Bft) S-SO 157 8,8 C 22,8 C 0,0 km/h (0 Bft)
25.09.2014 10:10 10,7 C 94 % 1020,8 hPa 0,0 l/m 0,0 km/h (0 Bft) S-SO 157 9,8 C 22,8 C 0,0 km/h (0 Bft)
25.09.2014 10:20 10,6 C 92 % 1020,8 hPa 0,0 l/m 0,0 km/h (0 Bft) S-SO 157 9,4 C 22,8 C 0,0 km/h (0 Bft)
25.09.2014 10:30 9,7 C 90 % 1021,1 hPa 0,0 l/m 0,0 km/h (0 Bft) S-SO 157 8,1 C 22,8 C 0,0 km/h (0 Bft)
25.09.2014 10:40 10,0 C 89 % 1021,1 hPa 0,0 l/m 0,0 km/h (0 Bft) S-SO 157 8,3 C 22,8 C 0,0 km/h (0 Bft)
25.09.2014 10:50 9,9 C 88 % 1021,3 hPa 0,0 l/m 0,0 km/h (0 Bft) S-SO 157 8,0 C 22,8 C 0,0 km/h (0 Bft)
25.09.2014 11:00 10,2 C 89 % 1021,3 hPa 0,0 l/m 0,0 km/h (0 Bft) S-SO 157 8,5 C 22,8 C 0,0 km/h (0 Bft)
25.09.2014 11:10 10,4 C 88 % 1021,6 hPa 0,0 l/m 0,0 km/h (0 Bft) S-SO 157 8,5 C 22,8 C 0,0 km/h (0 Bft)
25.09.2014 11:20 10,2 C 87 % 1021,6 hPa 0,0 l/m 0,0 km/h (0 Bft) S-SO 157 8,1 C 22,8 C 0,0 km/h (0 Bft)
25.09.2014 11:30 9,9 C 87 % 1021,8 hPa 0,0 l/m 0,0 km/h (0 Bft) S-SO 157 7,8 C 22,8 C 0,0 km/h (0 Bft)
25.09.2014 11:40 9,7 C 89 % 1021,8 hPa 0,0 l/m 0,0 km/h (0 Bft) S-SO 157 8,0 C 22,8 C 0,0 km/h (0 Bft)
25.09.2014 11:50 9,8 C 90 % 1022,0 hPa 0,0 l/m 0,0 km/h (0 Bft) S-SO 157 8,2 C 22,8 C 0,0 km/h (0 Bft)
25.09.2014 11:58 10,0 C 90 % 1022,0 hPa 0,0 l/m 0,0 km/h (0 Bft) S-SO 157 8,4 C 22,8 C 0,0 km/h (0 Bft)
25.09.2014 12:00 10,0 C 90 % 1022,0 hPa 0,0 l/m 0,0 km/h (0 Bft) S-SO 157 8,4 C 22,8 C 0,0 km/h (0 Bft)
25.09.2014 12:10 10,3 C 90 % 1022,1 hPa 0,0 l/m 0,0 km/h (0 Bft) S-SO 157 8,7 C 22,8 C 0,0 km/h (0 Bft)
25.09.2014 12:20 10,3 C 90 % 1022,1 hPa 0,0 l/m 0,0 km/h (0 Bft) S-SO 157 8,7 C 22,8 C 0,0 km/h (0 Bft)
25.09.2014 12:30 10,2 C 89 % 1022,2 hPa 0,0 l/m 0,0 km/h (0 Bft) S-SO 157 8,5 C 22,8 C 0,0 km/h (0 Bft)
25.09.2014 12:40 9,8 C 86 % 1022,2 hPa 0,0 l/m 0,0 km/h (0 Bft) S-SO 157 7,6 C 22,8 C 0,0 km/h (0 Bft)
25.09.2014 12:50 9,6 C 86 % 1022,5 hPa 0,0 l/m 0,0 km/h (0 Bft) S-SO 157 7,4 C 22,8 C 0,0 km/h (0 Bft)
25.09.2014 13:00 9,5 C 87 % 1022,5 hPa 0,0 l/m 0,0 km/h (0 Bft) S-SO 157 7,4 C 22,8 C 0,0 km/h (0 Bft)
25.09.2014 13:10 9,5 C 89 % 1022,7 hPa 0,0 l/m 0,0 km/h (0 Bft) S-SO 157 7,8 C 22,8 C 0,0 km/h (0 Bft)
25.09.2014 13:20 9,8 C 90 % 1022,7 hPa 0,0 l/m 0,0 km/h (0 Bft) S-SO 157 8,2 C 22,8 C 0,0 km/h (0 Bft)
25.09.2014 13:30 9,6 C 89 % 1023,1 hPa 0,0 l/m 0,0 km/h (0 Bft) S-SO 157 7,9 C 22,8 C 0,0 km/h (0 Bft)
25.09.2014 13:40 10,1 C 88 % 1023,1 hPa 0,0 l/m 0,0 km/h (0 Bft) S-SO 157 8,2 C 22,8 C 0,0 km/h (0 Bft)
25.09.2014 13:50 10,1 C 87 % 1023,1 hPa 0,0 l/m 0,0 km/h (0 Bft) S-SO 157 8,0 C 22,8 C 0,0 km/h (0 Bft)
25.09.2014 14:00 10,1 C 88 % 1023,1 hPa 0,0 l/m 0,0 km/h (0 Bft) S-SO 157 8,2 C 22,8 C 0,0 km/h (0 Bft)
25.09.2014 14:10 9,9 C 89 % 1023,1 hPa 0,0 l/m 0,0 km/h (0 Bft) S-SO 157 8,2 C 22,8 C 0,0 km/h (0 Bft)
25.09.2014 14:20 10,1 C 88 % 1023,1 hPa 0,0 l/m 0,0 km/h (0 Bft) S-SO 157 8,2 C 22,8 C 0,0 km/h (0 Bft)
25.09.2014 14:30 9,9 C 87 % 1023,1 hPa 0,0 l/m 0,0 km/h (0 Bft) S-SO 157 7,8 C 22,8 C 0,0 km/h (0 Bft)
25.09.2014 14:40 9,9 C 86 % 1023,1 hPa 0,0 l/m 0,0 km/h (0 Bft) S-SO 157 7,7 C 22,8 C 0,0 km/h (0 Bft)
25.09.2014 14:50 9,9 C 87 % 1023,3 hPa 0,0 l/m 0,0 km/h (0 Bft) S-SO 157 7,8 C 22,8 C 0,0 km/h (0 Bft)
25.09.2014 14:58 10,8 C 88 % 1023,3 hPa 0,0 l/m 0,0 km/h (0 Bft) S-SO 157 8,9 C 22,8 C 0,0 km/h (0 Bft)
25.09.2014 15:00 10,8 C 88 % 1023,3 hPa 0,0 l/m 0,0 km/h (0 Bft) S-SO 157 8,9 C 22,8 C 0,0 km/h (0 Bft)
25.09.2014 15:10 12,7 C 85 % 1022,9 hPa 0,0 l/m 0,0 km/h (0 Bft) S-SO 157 10,2 C 22,8 C 0,0 km/h (0 Bft)
25.09.2014 15:20 12,2 C 79 % 1022,9 hPa 0,0 l/m 0,0 km/h (0 Bft) S-SO 157 8,7 C 22,8 C 0,0 km/h (0 Bft)
25.09.2014 15:30 11,9 C 79 % 1022,9 hPa 0,0 l/m 0,0 km/h (0 Bft) S-SO 157 8,4 C 22,8 C 0,0 km/h (0 Bft)
25.09.2014 15:40 13,5 C 78 % 1022,9 hPa 0,0 l/m 0,0 km/h (0 Bft) S-SO 157 9,7 C 22,8 C 0,0 km/h (0 Bft)
25.09.2014 15:50 13,2 C 74 % 1023,0 hPa 0,0 l/m 0,0 km/h (0 Bft) S-SO 157 8,7 C 22,8 C 0,0 km/h (0 Bft)
25.09.2014 16:00 14,1 C 65 % 1023,0 hPa 0,0 l/m 0,0 km/h (0 Bft) S-SO 157 7,6 C 22,8 C 0,0 km/h (0 Bft)
25.09.2014 16:10 12,9 C 72 % 1023,1 hPa 0,0 l/m 0,0 km/h (0 Bft) S-SO 157 8,0 C 22,8 C 0,0 km/h (0 Bft)
25.09.2014 16:20 13,1 C 75 % 1023,1 hPa 0,0 l/m 0,0 km/h (0 Bft) S-SO 157 8,8 C 22,8 C 0,0 km/h (0 Bft)
25.09.2014 16:30 12,5 C 77 % 1023,1 hPa 0,0 l/m 0,0 km/h (0 Bft) S-SO 157 8,6 C 22,8 C 0,0 km/h (0 Bft)
25.09.2014 16:40 11,8 C 77 % 1023,1 hPa 0,0 l/m 0,0 km/h (0 Bft) S-SO 157 7,9 C 22,8 C 0,0 km/h (0 Bft)
25.09.2014 16:50 11,7 C 77 % 1023,2 hPa 0,0 l/m 0,0 km/h (0 Bft) S-SO 157 7,8 C 22,8 C 0,0 km/h (0 Bft)
25.09.2014 17:00 11,9 C 76 % 1023,2 hPa 0,0 l/m 0,0 km/h (0 Bft) S-SO 157 7,8 C 22,8 C 0,0 km/h (0 Bft)
25.09.2014 17:10 12,0 C 77 % 1023,9 hPa 0,0 l/m 0,0 km/h (0 Bft) S-SO 157 8,1 C 22,8 C 0,0 km/h (0 Bft)
25.09.2014 17:20 11,9 C 76 % 1023,9 hPa 0,0 l/m 0,0 km/h (0 Bft) S-SO 157 7,8 C 22,8 C 0,0 km/h (0 Bft)
25.09.2014 17:30 12,0 C 76 % 1023,3 hPa 0,0 l/m 0,0 km/h (0 Bft) S-SO 157 7,9 C 22,8 C 0,0 km/h (0 Bft)
25.09.2014 17:40 12,2 C 75 % 1023,3 hPa 0,0 l/m 0,0 km/h (0 Bft) S-SO 157 7,9 C 22,8 C 0,0 km/h (0 Bft)
25.09.2014 17:50 11,9 C 74 % 1023,6 hPa 0,0 l/m 0,0 km/h (0 Bft) S-SO 157 7,4 C 22,8 C 0,0 km/h (0 Bft)
25.09.2014 17:58 11,7 C 75 % 1023,6 hPa 0,0 l/m 0,0 km/h (0 Bft) S-SO 157 7,4 C 22,8 C 0,0 km/h (0 Bft)
25.09.2014 18:00 11,7 C 75 % 1023,6 hPa 0,0 l/m 0,0 km/h (0 Bft) S-SO 157 7,4 C 22,8 C 0,0 km/h (0 Bft)
25.09.2014 18:10 11,3 C 75 % 1023,7 hPa 0,0 l/m 0,0 km/h (0 Bft) S-SO 157 7,0 C 22,8 C 0,0 km/h (0 Bft)
25.09.2014 18:20 10,9 C 76 % 1023,7 hPa 0,0 l/m 0,0 km/h (0 Bft) S-SO 157 6,8 C 22,8 C 0,0 km/h (0 Bft)
25.09.2014 18:30 10,8 C 77 % 1023,7 hPa 0,0 l/m 0,0 km/h (0 Bft) S-SO 157 6,9 C 22,8 C 0,0 km/h (0 Bft)
25.09.2014 18:40 10,5 C 78 % 1023,7 hPa 0,0 l/m 0,0 km/h (0 Bft) S-SO 157 6,8 C 22,8 C 0,0 km/h (0 Bft)
25.09.2014 18:50 10,1 C 79 % 1023,8 hPa 0,0 l/m 0,0 km/h (0 Bft) S-SO 157 6,6 C 22,8 C 0,0 km/h (0 Bft)
25.09.2014 19:00 9,8 C 80 % 1023,8 hPa 0,0 l/m 0,0 km/h (0 Bft) S-SO 157 6,5 C 22,8 C 0,0 km/h (0 Bft)
25.09.2014 19:10 9,6 C 81 % 1023,8 hPa 0,0 l/m 0,0 km/h (0 Bft) S-SO 157 6,5 C 22,8 C 0,0 km/h (0 Bft)
25.09.2014 19:20 9,2 C 82 % 1023,8 hPa 0,0 l/m 0,0 km/h (0 Bft) S-SO 157 6,3 C 22,8 C 0,0 km/h (0 Bft)
25.09.2014 19:30 9,1 C 82 % 1024,2 hPa 0,0 l/m 0,0 km/h (0 Bft) S-SO 157 6,2 C 22,8 C 0,0 km/h (0 Bft)
25.09.2014 19:40 9,1 C 83 % 1024,2 hPa 0,0 l/m 0,0 km/h (0 Bft) S-SO 157 6,4 C 22,8 C 0,0 km/h (0 Bft)
25.09.2014 19:50 9,1 C 83 % 1024,2 hPa 0,0 l/m 0,0 km/h (0 Bft) S-SO 157 6,4 C 22,8 C 0,0 km/h (0 Bft)
25.09.2014 20:00 8,9 C 83 % 1024,2 hPa 0,0 l/m 0,0 km/h (0 Bft) S-SO 157 6,2 C 22,8 C 0,0 km/h (0 Bft)
25.09.2014 20:10 8,8 C 84 % 1024,6 hPa 0,0 l/m 0,0 km/h (0 Bft) S-SO 157 6,2 C 22,8 C 0,0 km/h (0 Bft)
25.09.2014 20:20 8,3 C 83 % 1024,6 hPa 0,0 l/m 0,0 km/h (0 Bft) S-SO 157 5,6 C 22,8 C 0,0 km/h (0 Bft)
25.09.2014 20:30 8,6 C 84 % 1024,6 hPa 0,0 l/m 0,0 km/h (0 Bft) S-SO 157 6,1 C 22,8 C 0,0 km/h (0 Bft)
25.09.2014 20:40 8,7 C 84 % 1024,6 hPa 0,0 l/m 0,0 km/h (0 Bft) S-SO 157 6,2 C 22,8 C 0,0 km/h (0 Bft)
25.09.2014 20:50 8,0 C 84 % 1024,8 hPa 0,0 l/m 0,0 km/h (0 Bft) S-SO 157 5,5 C 22,8 C 0,0 km/h (0 Bft)
25.09.2014 20:58 7,4 C 85 % 1024,8 hPa 0,0 l/m 0,0 km/h (0 Bft) S-SO 157 5,0 C 22,8 C 0,0 km/h (0 Bft)
25.09.2014 21:00 7,4 C 85 % 1024,8 hPa 0,0 l/m 0,0 km/h (0 Bft) S-SO 157 5,0 C 22,8 C 0,0 km/h (0 Bft)
25.09.2014 21:10 7,2 C 87 % 1024,9 hPa 0,0 l/m 0,0 km/h (0 Bft) S-SO 157 5,2 C 22,8 C 0,0 km/h (0 Bft)
25.09.2014 21:20 6,9 C 88 % 1024,9 hPa 0,0 l/m 0,0 km/h (0 Bft) S-SO 157 5,1 C 22,8 C 0,0 km/h (0 Bft)
25.09.2014 21:30 6,9 C 89 % 1025,0 hPa 0,0 l/m 0,0 km/h (0 Bft) S-SO 157 5,2 C 22,8 C 0,0 km/h (0 Bft)
25.09.2014 21:40 6,7 C 89 % 1025,0 hPa 0,0 l/m 0,0 km/h (0 Bft) S-SO 157 5,0 C 22,8 C 0,0 km/h (0 Bft)
25.09.2014 21:50 6,7 C 90 % 1024,9 hPa 0,0 l/m 0,0 km/h (0 Bft) S-SO 157 5,2 C 22,8 C 0,0 km/h (0 Bft)
25.09.2014 22:00 6,4 C 90 % 1024,9 hPa 0,0 l/m 0,0 km/h (0 Bft) S-SO 157 4,9 C 22,8 C 0,0 km/h (0 Bft)
25.09.2014 22:10 6,3 C 90 % 1025,3 hPa 0,0 l/m 0,0 km/h (0 Bft) S-SO 157 4,8 C 22,8 C 0,0 km/h (0 Bft)
25.09.2014 22:20 6,1 C 90 % 1025,3 hPa 0,0 l/m 0,0 km/h (0 Bft) S-SO 157 4,6 C 22,8 C 0,0 km/h (0 Bft)
25.09.2014 22:30 6,4 C 90 % 1025,1 hPa 0,0 l/m 0,0 km/h (0 Bft) S-SO 157 4,9 C 22,8 C 0,0 km/h (0 Bft)
25.09.2014 22:40 6,5 C 90 % 1025,1 hPa 0,0 l/m 0,0 km/h (0 Bft) S-SO 157 5,0 C 22,8 C 0,0 km/h (0 Bft)
25.09.2014 22:50 6,8 C 91 % 1025,3 hPa 0,0 l/m 0,0 km/h (0 Bft) S-SO 157 5,4 C 22,8 C 0,0 km/h (0 Bft)
25.09.2014 23:00 7,0 C 91 % 1025,3 hPa 0,0 l/m 0,0 km/h (0 Bft) S-SO 157 5,6 C 22,8 C 0,0 km/h (0 Bft)
25.09.2014 23:10 7,3 C 91 % 1025,7 hPa 0,0 l/m 0,0 km/h (0 Bft) S-SO 157 5,9 C 22,8 C 0,0 km/h (0 Bft)
25.09.2014 23:20 7,0 C 91 % 1025,7 hPa 0,0 l/m 0,0 km/h (0 Bft) S-SO 157 5,6 C 22,8 C 0,0 km/h (0 Bft)
25.09.2014 23:30 7,1 C 91 % 1025,6 hPa 0,0 l/m 0,0 km/h (0 Bft) S-SO 157 5,7 C 22,8 C 0,0 km/h (0 Bft)
25.09.2014 23:40 6,9 C 91 % 1025,6 hPa 0,0 l/m 0,0 km/h (0 Bft) S-SO 157 5,5 C 22,8 C 0,0 km/h (0 Bft)
25.09.2014 23:50 6,4 C 90 % 1025,6 hPa 0,0 l/m 0,0 km/h (0 Bft) S-SO 157 4,9 C 22,8 C 0,0 km/h (0 Bft)
25.09.2014 23:58 6,2 C 90 % 1025,6 hPa 0,0 l/m 0,0 km/h (0 Bft) S-SO 157 4,7 C 22,8 C 0,0 km/h (0 Bft)
_ Min-Zeit 22:20 16:00 01:20 - 23:58 - - 22:20 23:58 23:58
Minimum _ 6,1 C 65 % 1017,0 hPa - 0,0 km/h (0 Bft) - - 4,6 C 22,8 C 0,0 km/h (0 Bft)
_ Max-Zeit 16:00 08:30 23:20 23:58 23:58 - - 15:10 23:58 23:58
Maximum _ 14,1 C 96 % 1025,7 hPa 0,0 l/m 0,0 km/h
S-SO (0 Bft)
- - 10,2 C 22,8 C 0,0 km/h
S-SO (0 Bft)
Durchschnitt _ 9,0 C 89 % 1021,6 hPa #0,0 l/m 0,0 km/h (0 Bft) - - - 7,2 C 22,8 C 0,0 km/h (0 Bft)